Weather History for North Conway, NH

Change the Weather History Date:

Tuesday, January 28, 2014

  Actual Average (KIZG) Record (KIZG)
Temperature  
Mean Temperature 12 °F -  
Max Temperature 18 °F 28 °F 51 °F (2006)
Min Temperature 6 °F 3 °F -26 °F (2003)
Degree Days  
Heating Degree Days 53    
Moisture  
Dew Point 6 °F    
Average Humidity 76    
Maximum Humidity 94    
Minimum Humidity 50    
Precipitation  
Precipitation 0.09 in - - ()
Sea Level Pressure  
Sea Level Pressure 30.21 in    
Wind  
Wind Speed 5 mph (SSW)    
Max Wind Speed 15 mph    
Max Gust Speed 22 mph    
Averages and records for this station are not official NWS values.
T = Trace of Precipitation, MM = Missing Value Source: NWS Daily Summary

Daily Weather History Graph

Daily Weather History Graph

Search for Another Location

Airport:

Trip Planner

Search our weather history database for the weather conditions in past years. The results will help you decide how hot, cold, wet, or windy it might be!

Date:

Astronomy

Jan. 28, 2014 Rise Set
Actual Time 7:06 AM EST 4:49 PM EST
Civil Twilight 6:35 AM EST 5:20 PM EST
Nautical Twilight 6:00 AM EST 5:55 PM EST
Astronomical Twilight 5:26 AM EST 6:29 PM EST
Moon 4:46 AM EST (1/28) 2:34 PM EST (1/28)
Length of Visible Light 10h 45m
Length of Day
9h 43m
Waning Crescent, 7% of the Moon is Illuminated
Jan 28
Waning Crescent
Jan 30
New
Feb 6
First Quarter
Feb 14
Full
Feb 22
Last Quarter

Hourly Weather History & Observations

Time (EST) Temp. Windchill Dew Point Humidity Pressure Visibility Wind Dir Wind Speed Gust Speed Precip Events Conditions
12:41 AM 6.8 °F - 5.0 °F 92% 30.03 in - Variable 2.3 mph - N/A   Overcast
12:56 AM 7.0 °F - 5.2 °F 92% 30.32 in - Variable 1.2 mph - N/A   Overcast
1:56 AM 7.5 °F -2.6 °F 5.9 °F 93% 30.32 in - NNW 5.8 mph - N/A   Overcast
2:56 AM 6.1 °F - 3.6 °F 89% 30.28 in - Variable 1.2 mph - N/A   Overcast
3:56 AM 9.7 °F -5.7 °F 8.2 °F 94% 30.29 in - NNW 12.7 mph 21.9 mph N/A   Mostly Cloudy
4:56 AM 10.4 °F -6.0 °F 2.5 °F 70% 30.32 in - NW 15.0 mph 19.6 mph N/A   Clear
5:56 AM 9.9 °F -3.1 °F 1.9 °F 70% 30.32 in - NNW 9.2 mph - N/A   Clear
6:56 AM 8.1 °F -0.5 °F 1.8 °F 75% 30.05 in - WNW 4.6 mph - N/A   Clear
7:56 AM 9.9 °F -1.1 °F 3.4 °F 75% 30.06 in - SW 6.9 mph - N/A   Clear
8:56 AM 9.5 °F -3.5 °F 3.4 °F 76% 30.07 in - South 9.2 mph - N/A   Clear
9:56 AM 10.0 °F -0.9 °F 5.7 °F 83% 30.09 in - SSE 6.9 mph - N/A   Clear
10:56 AM 11.1 °F - 6.1 °F 80% 30.10 in - Variable 2.3 mph - N/A   Clear
11:56 AM 12.7 °F 6.7 °F 8.6 °F 84% 30.10 in - Variable 3.5 mph - 0.03 in   Clear
12:56 PM 14.7 °F 5.9 °F 10.0 °F 82% 30.09 in - ESE 5.8 mph - 0.03 in   Clear
1:56 PM 15.4 °F 9.8 °F 8.8 °F 75% 30.35 in - Variable 3.5 mph - 0.02 in   Partly Cloudy
2:56 PM 16.3 °F 7.8 °F 9.9 °F 76% 30.32 in - SE 5.8 mph - 0.01 in   Clear
3:56 PM 16.7 °F 9.6 °F 8.2 °F 69% 30.29 in - ESE 4.6 mph - N/A   Clear
4:56 PM 17.4 °F 10.4 °F 7.5 °F 65% 30.25 in - ESE 4.6 mph - N/A   Clear
5:56 PM 15.4 °F - 8.2 °F 73% 30.27 in - SSW 2.3 mph - N/A   Clear
6:56 PM 18.1 °F 5.0 °F 2.3 °F 50% 30.25 in - South 12.7 mph 15.0 mph N/A   Clear
7:56 PM 17.2 °F - 5.2 °F 59% 30.25 in - WNW 2.3 mph - N/A   Clear
8:56 PM 16.3 °F 10.8 °F 7.5 °F 68% 30.27 in - SSW 3.5 mph - N/A   Clear
9:56 PM 16.9 °F - 7.7 °F 67% 30.24 in - South 2.3 mph - N/A   Clear
10:56 PM 15.8 °F 8.6 °F 8.4 °F 73% 30.24 in - Variable 4.6 mph - N/A   Clear
11:56 PM 17.4 °F 10.4 °F 8.8 °F 69% 30.20 in - Variable 4.6 mph - N/A   Clear